星链-37281(STARLINK-37281)

导读

STARLINK-37281(NORAD编号68773)是美国SpaceX公司星链(Starlink)星座中的一颗低轨互联网通信卫星,属于星链星座大规模组网部署中的一员。星链计划旨在通过近地轨道卫星群,为全球提供高速互联网接入服务,尤其覆盖偏远地区、海洋等网络基础设施薄弱区域。 该卫星运行在近地轨道,属于星链v2 mini批次卫星,具备卫星通信能力,部分同批次卫星支持直接对接手机终端的NTN非地面网络服务。作为SpaceX持续扩充星座部署的产物,它助力星链实现更大范围的覆盖与更低的通信时延,目前已完成入轨部署,纳入全球星链卫星通信网络运行。全文约148字。

基本信息
目录编号:
68773
目录名称:
STARLINK-37281
国际标识:
2026-086H
轨道中心:
EARTH
卫星名称:
星链-37281
卫星全名:
星链-37281(STARLINK-37281)
卫星状态:
在轨 (已飞行146 天)
发射日期:
2026-04-19 UTC
国别 :
美国 (US)
星等 :
--
该卫星已列入 空间交会检测服务 Space Conjunction Data Service (SCDS) ,当前飞行风险评估等级: 无高风险
轨道信息
数据来源 国际轨道数据 AOE轨道数据
星历时间 2026-09-11T23:03:44+0800
15小时前
查看轨道信息
2026-09-10T22:00:00+0800
1天前
查看轨道信息
半长轴 6843.678km 6843.694km
偏心率 0.0001868 0.0001057
轨道倾角 97.282° 97.285°
近地点辐角 84.751° 88.718°
升交点赤经 290.160° 289.127°
平近点角 275.395° 270.445°
近地点 464.262km 464.833km
远地点 466.82km 466.281km
周期 93.906分钟 93.906分钟
每日圈数 15.33446 15.334406
详细信息
固有亮度:
5
最大亮度:
2.5
卫星平台:
Starlink V1.0
覆盖范围:
全球
运营商:
太空探索技术公司
运营商所在国:
美国
制造商(研发单位):
太空探索技术公司
制造商所在国:
美国
使用方式:
暂无
卫星简介
Starlink 计划是 SpaceX 推出的全球卫星互联网项目,通过发射低轨道卫星,为全球尤其是偏远地区提供高速、低延迟的互联网服务。自 2019 年起,Starlink 已部署数千颗卫星,旨在缩小全球数字鸿沟,推动互联网普及。该项目还为军事、航空等行业提供通信支持,带来广泛经济效益。
2D轨道图
3D轨道图
轨道高度分析图
轨道倾角分析图
轨道综合分析图
查看轨道综合分析图
交会数据列表
事件ID 空间交会对象 最接近时刻(TCA) 交会距离 交会风险概率(CRP) 交会风险指数(CRI) 操作
CDM_260913-090104-793706-877322
OBJECT F (47937)
2026-09-13T
09:01:45+0000
2.237 km
极远距离
2.113118E-6 低风险 0.41
CDM_260913-095904-781506-877321
2026-09-13T
09:59:25+0000
2.496 km
极远距离
1.740547E-6 低风险 0.4
CDM_260913-005705-172406-877321
2026-09-13T
00:57:55+0000
2.897 km
极远距离
1.203886E-6 低风险 0.37
CDM_260912-070505-866006-877321
2026-09-12T
07:05:11+0000
2.760 km
极远距离
1.182999E-6 低风险 0.36
CDM_260913-001005-172406-877321
2026-09-13T
00:10:58+0000
2.999 km
极远距离
1.155036E-6 低风险 0.36
与全量物体交会距离演化趋势
与全量物体交会风险概率演化趋势